GFSNW_sfc_thetae_096.txt.gz
Theta_e
306 307 307 308 309 308 305 298 288 304 306 296 294 291 297 301 302 305 301 299 297 295 295 292 292 295 297 301 300 294 294 290 286 289 293 296 292 290 289 284 283 280 278 281
308 308 308 308 309 309 304 294 292 302 305 291 291 296 299 303 301 301 299 297 298 297 294 289 293 296 299 300 299 296 295 287 283 286 288 292 290 292 292 290 291 286 279 283
307 307 308 309 309 309 305 295 288 295 299 301 296 294 294 297 302 300 300 299 300 297 294 293 292 294 298 299 301 303 298 287 285 282 284 288 287 290 292 289 282 284 288 286
308 309 308 309 308 309 305 294 291 297 289 295 295 295 295 294 295 299 300 296 296 293 290 290 290 292 293 297 299 296 294 288 287 287 290 290 289 290 291 290 290 286 288 288
309 309 309 308 308 308 301 293 296 298 296 297 295 295 294 295 295 295 294 294 295 294 291 290 289 290 290 289 293 290 294 283 285 284 289 290 288 290 291 291 292 291 292 288
307 308 309 309 308 308 299 300 300 298 293 293 293 294 294 295 296 297 298 295 292 290 292 294 293 293 292 291 289 288 289 289 287 282 288 288 284 288 290 290 291 290 287 290
307 308 309 310 310 309 303 300 297 294 289 292 292 294 295 294 295 294 296 294 292 295 298 295 292 290 291 290 290 291 289 290 286 282 283 278 287 294 294 290 290 290 289 290
306 307 309 310 310 310 304 303 299 295 288 292 292 294 294 295 294 292 294 296 296 297 294 287 284 284 285 288 289 288 290 287 286 282 279 285 289 293 291 289 287 291 290 291
306 307 309 310 309 309 306 303 304 300 292 289 295 292 293 291 290 290 293 298 298 295 290 287 280 278 285 287 288 292 290 290 286 284 280 277 286 296 298 294 284 293 292 290
305 306 308 309 309 309 305 300 304 301 293 297 296 291 290 293 291 288 291 293 293 293 286 282 279 280 287 283 287 286 286 287 284 284 282 283 292 297 298 285 284 292 291 289
305 306 307 307 309 309 307 302 304 298 294 297 298 298 293 292 291 286 289 290 290 289 284 285 285 283 289 289 291 289 287 286 284 286 283 280 297 297 290 291 294 294 291 290
305 305 306 306 308 308 309 301 303 304 298 297 299 300 301 298 297 292 290 289 290 290 285 288 288 284 288 288 278 295 287 290 287 287 283 292 296 296 296 295 293 291 291 291
305 305 305 305 307 308 307 303 303 301 296 296 294 295 299 300 299 300 291 292 295 294 294 290 287 280 285 285 287 291 294 297 292 291 296 295 298 297 297 295 293 293 292 290
305 305 305 305 306 307 308 303 303 301 296 289 291 300 298 302 300 300 299 296 297 296 295 291 288 284 287 284 288 291 292 296 294 293 296 297 298 298 295 295 294 293 292 291
304 305 305 305 306 306 306 305 303 304 296 289 292 297 298 300 301 299 299 298 295 293 290 288 288 291 289 286 286 284 290 290 287 284 294 292 292 295 296 294 293 292 291 290
303 305 304 305 305 306 302 295 303 304 302 293 288 295 298 300 300 298 297 297 295 293 290 289 291 294 289 286 285 290 290 293 293 292 297 293 293 295 296 293 293 293 291 292
304 304 304 304 304 301 297 295 300 304 303 293 288 289 298 300 299 298 295 294 292 290 291 290 286 287 291 288 285 289 294 296 293 295 294 291 293 291 294 294 295 295 293 293
304 304 304 304 304 302 299 302 305 304 298 296 287 286 293 299 293 291 296 293 294 293 291 291 288 290 289 284 288 290 296 295 293 293 293 293 293 292 293 293 292 291 291 292
303 303 303 301 299 296 298 307 304 301 296 289 289 286 282 297 293 293 293 291 287 293 288 289 288 284 284 287 288 290 293 294 290 293 293 293 291 291 291 291 290 289 289 290
302 300 296 291 297 306 305 297 293 292 293 291 287 286 289 294 292 290 290 290 287 283 287 291 285 282 289 291 292 295 297 292 293 290 290 290 290 290 290 289 290 290 290 290
297 293 291 297 303 296 292 287 287 288 284 288 289 286 288 295 288 288 289 287 288 283 286 286 286 285 287 292 295 294 294 295 294 295 294 293 292 290 290 290 290 289 289 289
296 296 298 297 292 289 287 285 287 285 282 283 282 284 291 293 295 288 289 286 287 282 290 287 282 285 292 295 294 295 293 293 293 294 293 292 292 291 291 289 288 288 289 289
297 292 289 289 287 283 283 280 283 282 285 285 288 287 289 288 292 287 287 283 283 292 287 285 286 291 295 295 296 293 292 293 293 292 292 292 291 291 290 289 289 290 288 288
290 287 281 285 282 285 284 284 285 288 288 287 287 287 287 290 286 288 284 286 287 283 282 283 289 295 294 293 292 291 291 292 291 290 290 289 288 287 289 290 290 289 287 287
287 288 283 284 289 290 292 293 294 293 293 291 289 289 287 285 285 286 285 283 283 284 285 288 292 292 291 290 290 290 289 290 289 288 288 287 287 286 286 287 288 288 286 286
291 289 286 289 289 290 291 293 293 295 294 294 292 286 285 284 284 283 282 283 283 285 290 293 294 290 289 289 290 290 290 289 288 288 288 287 286 285 284 286 287 285 285 285
289 288 291 290 288 288 293 295 294 295 292 289 289 285 284 288 285 285 289 287 287 291 291 293 292 290 289 289 289 289 289 288 288 287 286 286 286 284 284 283 284 284 284 284

GFSNW_sfc_thetae_102.txt.gz
Theta_e
306 307 307 308 308 307 306 301 295 311 311 297 299 294 295 297 299 302 300 303 300 299 300 299 298 297 301 304 305 300 304 301 296 297 303 305 304 300 300 294 292 295 294 293
306 307 307 308 308 307 303 297 297 310 308 291 295 299 297 299 299 300 300 299 302 302 299 296 299 301 304 304 303 301 304 299 292 293 299 303 299 301 302 301 301 294 291 293
306 307 307 308 307 307 304 299 292 301 301 303 295 293 294 295 302 301 301 300 302 300 299 302 298 298 301 304 304 306 308 302 297 293 295 300 297 299 302 301 295 295 295 296
307 307 307 307 307 307 305 298 296 299 292 296 295 295 297 293 291 300 302 299 300 297 296 297 298 301 300 304 305 304 304 297 300 297 298 297 298 298 299 298 298 294 296 296
307 307 307 307 307 307 304 295 295 299 297 298 297 296 295 292 294 295 295 297 299 300 296 298 296 299 300 300 304 303 304 297 299 295 299 298 296 298 298 298 298 296 298 298
307 307 307 307 308 308 304 304 306 295 295 296 294 294 294 291 291 298 298 299 299 298 297 300 302 303 303 304 302 301 301 299 296 291 296 295 291 295 297 298 300 299 295 300
306 307 307 307 308 308 310 307 302 292 290 295 293 295 296 295 293 289 298 301 299 298 303 303 302 302 301 302 302 305 300 299 296 290 292 284 295 301 300 298 300 302 302 302
304 306 306 307 308 308 306 304 298 292 289 295 294 296 296 297 295 293 295 297 300 304 299 293 291 292 294 295 298 299 303 299 293 290 289 292 294 297 298 297 297 302 302 303
302 304 306 307 307 307 306 305 305 298 294 294 295 294 298 295 293 291 294 301 303 301 296 292 287 288 291 289 290 297 299 301 295 291 284 283 296 301 304 303 293 303 304 303
302 303 304 306 306 307 307 305 307 302 293 298 298 294 295 299 297 294 292 295 297 300 296 292 289 290 295 290 289 289 292 293 290 289 287 291 299 302 304 292 295 304 305 304
302 302 303 304 306 306 306 304 307 302 295 298 301 300 295 296 299 294 297 295 298 297 293 294 294 294 295 294 294 292 290 290 290 290 287 284 302 302 295 303 306 305 304 303
302 303 303 304 305 306 306 301 309 307 299 298 306 305 305 302 303 300 300 298 297 300 297 298 298 295 295 292 289 299 291 296 293 295 294 304 306 305 308 309 305 304 303 303
302 303 304 304 304 306 306 305 307 303 298 298 299 300 305 308 308 308 298 302 302 302 304 299 299 291 298 291 293 294 298 301 298 298 301 302 305 305 305 304 303 304 304 302
303 303 304 304 304 305 306 305 307 302 300 292 295 306 304 308 309 307 308 305 308 307 304 301 299 295 296 293 294 296 298 301 297 295 300 302 303 304 303 301 301 302 301 300
303 303 304 304 304 305 306 307 308 306 297 290 295 300 303 306 307 305 307 305 305 302 298 299 295 299 296 297 296 294 300 298 293 292 302 303 303 305 305 303 301 302 300 297
303 304 303 304 304 304 303 298 308 310 305 296 290 298 297 303 304 304 301 301 304 302 299 298 299 299 297 292 291 296 300 304 306 300 306 305 308 306 306 303 302 302 301 297
303 303 304 304 304 303 297 293 299 304 305 296 291 293 299 301 301 302 301 302 301 300 300 297 297 297 297 293 290 297 300 302 304 305 306 304 305 303 305 303 302 302 299 298
304 305 304 303 303 303 300 305 304 306 299 300 291 291 293 300 293 293 301 295 297 297 297 297 295 297 296 291 297 299 301 302 304 305 307 307 306 305 303 303 302 298 297 297
304 303 302 302 299 296 301 307 306 306 298 292 293 290 287 299 294 295 295 298 292 296 290 292 293 292 290 295 296 298 300 301 301 305 305 305 303 302 302 301 300 297 296 297
303 301 295 290 297 306 306 300 295 295 295 294 291 297 290 296 293 292 293 296 291 289 292 296 292 291 297 298 300 303 303 304 305 302 300 301 300 300 300 299 299 298 297 298
299 293 290 298 303 298 294 290 290 291 288 291 292 294 291 296 290 290 294 289 293 287 290 290 290 291 296 300 300 304 305 305 305 304 304 304 302 300 298 297 297 296 296 295
297 297 299 298 294 291 288 288 289 288 288 292 290 293 293 296 300 293 294 290 292 284 294 289 287 295 300 301 301 304 305 305 303 305 302 302 300 299 298 296 295 295 295 295
298 293 291 292 290 284 285 283 287 287 292 293 293 290 294 297 299 294 294 286 287 297 289 289 294 299 300 302 303 302 302 303 303 302 301 300 298 296 295 294 294 295 294 294
291 288 284 287 286 288 290 291 292 295 296 294 293 293 293 296 292 291 285 291 292 286 285 288 296 299 300 301 302 302 301 301 300 299 298 296 295 295 295 295 295 294 293 293
289 288 285 287 290 292 292 293 295 297 297 295 294 294 293 289 287 289 289 286 284 286 288 295 300 300 301 301 299 296 297 297 297 297 296 296 296 295 294 295 295 294 293 293
292 290 288 290 289 291 294 295 293 297 297 300 297 290 287 286 289 285 283 283 284 290 296 297 295 294 295 298 301 300 300 298 298 297 297 297 296 295 295 295 294 294 293 293
290 289 290 289 290 290 293 299 297 298 295 290 291 286 287 292 287 284 289 288 293 293 296 294 296 294 294 299 299 298 298 297 297 296 296 296 297 296 294 292 293 293 293 293

GFSNW_sfc_thetae_105.txt.gz
Theta_e
307 307 307 307 307 306 306 303 296 314 314 297 297 295 296 299 297 299 298 300 297 296 297 293 292 295 301 308 307 301 305 302 293 297 304 306 304 301 303 295 293 297 294 294
308 307 307 307 307 306 306 299 300 310 311 291 295 298 298 299 298 298 297 297 298 299 297 296 297 296 306 306 305 303 305 300 295 293 301 305 302 302 303 304 302 296 291 294
307 307 307 307 307 307 305 300 294 303 307 305 298 295 295 296 299 298 299 299 300 299 299 300 299 298 301 306 304 308 308 301 298 294 297 301 299 301 303 303 297 296 296 297
307 307 307 307 307 307 306 300 297 300 294 297 296 297 296 294 292 299 297 299 299 298 294 296 298 302 302 303 304 305 303 297 301 301 300 298 300 299 300 299 301 295 297 298
306 306 307 307 306 306 304 297 296 300 298 299 297 295 295 294 293 292 295 293 297 298 294 298 296 300 301 301 304 302 303 295 299 298 302 301 298 300 300 301 301 300 300 299
304 305 306 307 307 306 300 304 306 299 293 296 295 295 295 295 297 296 297 298 295 294 299 302 303 304 305 305 303 300 300 299 295 290 298 297 294 298 300 300 302 301 296 301
304 304 305 306 307 306 302 301 302 294 290 294 294 296 296 296 297 295 298 296 292 301 305 305 304 304 303 304 304 306 300 299 297 292 297 286 297 303 301 300 301 303 303 305
303 304 304 305 306 306 303 302 300 294 290 295 295 297 297 298 298 295 294 295 299 304 302 296 293 292 293 296 301 302 305 301 296 292 292 294 296 299 299 297 297 304 303 304
302 304 304 304 305 306 307 306 305 298 292 296 297 296 297 294 297 294 294 300 301 302 300 296 289 286 291 292 295 302 302 303 296 294 288 285 298 303 305 305 295 305 305 306
303 303 304 304 304 305 307 305 307 300 292 301 300 296 296 298 299 296 295 295 297 301 295 292 291 291 295 291 291 292 295 296 293 292 291 293 302 304 306 294 295 305 306 306
303 303 304 304 305 304 304 304 307 300 296 300 302 301 299 298 299 294 299 296 299 298 294 294 294 294 295 295 297 294 293 292 292 293 289 286 304 303 297 304 308 306 306 305
302 303 304 304 305 304 305 301 309 306 297 299 307 307 308 306 305 299 303 298 300 299 297 297 297 295 299 297 291 300 293 297 296 296 295 307 309 308 310 309 305 305 306 306
303 303 304 304 305 305 304 304 308 304 298 299 302 299 306 309 309 311 299 302 305 305 307 300 300 293 299 296 295 297 301 304 301 299 303 303 307 309 310 308 307 307 306 305
302 303 304 304 305 305 304 304 305 302 297 294 297 308 304 309 311 310 310 307 309 308 304 302 300 294 300 296 297 298 301 303 300 298 303 303 304 306 307 307 306 305 304 303
302 303 304 304 304 304 306 306 308 309 297 290 296 304 304 310 310 308 308 307 307 302 298 297 296 300 298 300 299 295 302 300 299 298 304 304 302 305 308 305 303 303 301 299
303 304 304 304 304 305 305 298 304 307 305 296 292 303 299 304 307 305 305 308 306 304 301 298 299 301 298 295 293 299 301 306 307 304 308 307 306 309 306 304 304 304 301 299
304 304 305 305 304 304 297 296 300 304 306 297 292 293 299 302 303 304 304 307 305 305 301 297 297 298 298 296 293 299 301 306 308 307 307 305 306 302 305 305 305 303 301 300
304 304 304 304 304 303 300 305 305 305 300 300 292 292 293 299 295 296 304 301 303 300 299 300 296 298 297 291 298 301 301 303 304 305 308 307 306 305 304 305 303 300 299 298
305 304 303 303 302 297 300 306 306 307 299 292 295 291 288 298 295 298 301 301 293 300 297 295 298 294 291 296 297 300 301 301 303 305 308 305 303 302 303 303 301 299 298 299
303 302 296 292 296 305 306 300 296 296 296 297 293 298 290 295 295 297 297 299 293 291 294 297 292 293 299 299 301 303 303 305 305 302 301 301 300 301 302 301 301 300 299 299
300 294 292 298 303 299 296 291 290 294 290 295 295 295 292 297 293 295 300 295 295 290 292 292 292 291 298 302 302 303 306 305 305 306 306 305 303 302 301 300 300 299 299 299
298 298 300 299 296 295 290 290 293 291 290 294 293 294 296 300 301 296 297 292 294 287 299 293 289 296 301 302 302 304 305 307 305 305 303 303 303 302 300 299 298 298 298 298
302 297 293 295 294 286 287 285 289 290 293 294 295 292 299 300 301 297 295 288 289 300 292 290 296 301 303 302 303 305 305 305 306 303 304 303 301 300 298 297 298 298 297 297
292 289 286 290 289 291 291 292 293 296 297 296 297 296 296 297 294 294 288 293 295 288 287 290 299 300 301 303 304 304 303 304 302 302 301 299 297 297 297 297 297 296 295 296
290 290 286 288 291 293 296 295 297 298 299 297 295 296 294 293 289 293 290 287 286 289 290 294 302 301 302 302 303 302 302 301 300 300 298 297 297 296 296 297 297 296 296 295
292 291 289 291 290 292 294 294 298 300 298 300 298 292 289 288 290 286 285 285 286 292 296 297 301 300 301 301 301 302 301 301 299 298 298 298 297 297 297 297 296 295 295 294
291 290 293 291 291 293 295 300 299 303 297 292 294 287 289 295 290 286 290 289 293 298 297 296 297 299 303 303 301 301 301 299 299 299 298 299 298 298 296 294 295 296 296 294

GFSNW_sfc_thetae_108.txt.gz
Theta_e
307 307 307 307 307 306 305 302 294 312 315 298 298 293 295 297 298 301 299 299 295 292 295 293 293 292 296 303 305 299 304 302 292 296 303 304 302 300 300 295 293 296 295 294
307 307 307 307 307 306 303 294 298 309 309 291 294 297 296 297 297 296 297 297 298 299 294 291 294 297 301 304 302 303 305 300 293 295 300 303 299 301 303 304 303 293 293 294
306 306 306 307 307 306 304 296 292 303 306 303 295 292 292 294 300 298 299 298 299 297 295 298 294 297 298 305 305 308 309 302 297 290 295 299 297 299 302 301 297 294 296 297
306 306 306 306 306 306 304 298 294 299 293 295 296 296 295 293 292 298 298 295 296 296 292 295 295 298 299 304 305 304 307 298 300 299 299 299 299 299 300 298 301 296 298 296
304 305 305 305 305 305 302 294 293 294 293 297 295 295 294 294 295 296 293 290 292 295 289 292 293 298 297 298 302 301 304 298 299 297 297 299 297 297 300 300 301 300 299 297
303 304 305 305 305 304 298 300 299 295 292 294 293 294 295 295 298 298 298 296 294 294 298 302 303 304 304 304 301 300 301 298 295 292 298 296 291 295 296 301 303 302 297 302
304 303 304 305 305 305 300 300 297 290 288 293 293 295 297 296 298 295 298 298 292 297 305 305 303 302 301 300 303 306 300 299 296 292 296 285 298 304 302 301 303 304 303 305
302 303 304 305 305 305 304 304 297 291 287 293 295 296 295 298 299 297 296 298 298 300 300 296 292 291 292 298 303 302 304 298 292 291 290 293 297 300 299 298 297 303 303 305
302 303 304 305 305 305 303 304 303 297 289 293 297 296 297 294 295 296 296 300 302 300 298 295 289 286 291 290 295 300 301 303 296 294 288 286 297 302 306 303 294 306 306 306
303 304 304 304 304 305 305 302 305 298 290 296 297 294 296 299 297 294 297 297 297 301 294 293 291 291 295 290 290 292 295 296 293 292 292 294 303 304 305 292 296 307 307 307
303 303 304 304 304 305 305 301 305 300 292 295 300 300 299 299 299 292 297 295 298 297 292 294 293 292 295 295 296 294 294 293 293 294 290 288 305 303 298 306 308 308 307 306
302 303 304 304 304 305 305 300 307 305 296 295 304 305 306 306 304 301 300 298 298 301 297 298 297 295 297 296 291 300 294 298 297 297 297 307 309 309 311 310 307 307 306 307
303 303 304 304 305 305 305 302 305 302 296 296 300 300 307 310 308 311 299 304 304 303 307 300 298 295 298 294 295 297 301 304 300 300 303 305 307 307 308 307 306 307 307 306
303 303 304 304 305 305 304 301 307 302 296 290 297 307 305 310 310 310 310 307 309 308 305 299 298 296 301 297 298 299 302 303 300 300 303 304 305 305 306 306 306 305 305 304
304 304 304 305 305 305 305 306 307 309 296 290 294 303 306 308 309 308 308 308 307 304 299 298 297 299 299 299 300 298 303 301 299 297 304 304 303 306 306 304 303 303 301 300
304 304 304 305 305 306 304 298 304 305 303 296 291 303 300 305 307 305 304 306 305 306 301 298 299 303 299 294 294 301 305 307 308 305 308 307 307 308 306 303 303 301 300 299
304 304 304 305 305 305 300 296 302 304 305 296 293 294 298 302 304 305 304 306 303 304 300 298 297 298 299 295 293 300 303 306 307 309 308 305 305 302 305 304 302 302 300 299
304 305 305 305 304 303 300 305 306 305 299 300 291 291 293 300 296 297 303 301 301 300 299 298 297 298 298 293 299 301 303 305 307 307 309 307 305 305 303 303 301 299 297 298
305 304 304 304 302 298 299 306 305 306 299 292 295 290 287 298 296 299 300 301 295 300 296 296 297 294 291 297 299 300 302 302 304 306 305 305 303 302 302 301 300 298 297 298
304 303 297 293 298 304 305 301 296 297 298 299 293 299 291 295 296 297 298 300 294 291 295 298 293 292 300 301 303 303 305 306 306 303 300 301 301 301 301 300 301 300 299 299
302 296 294 299 304 299 298 292 291 294 292 296 297 296 294 301 294 295 297 295 295 290 293 293 292 291 297 302 303 304 306 306 307 307 305 305 303 301 300 300 300 300 300 298
300 298 301 300 298 296 291 292 294 292 290 296 294 296 298 300 303 296 296 292 294 288 297 292 289 297 301 302 302 305 306 307 306 306 305 304 303 302 301 300 299 299 299 298
303 298 295 295 295 288 287 286 289 291 294 296 296 295 299 300 302 296 294 289 290 299 292 291 295 302 303 304 305 305 307 305 306 305 304 303 301 301 299 297 298 298 298 298
293 290 286 290 290 290 291 291 293 296 297 296 298 297 297 298 295 294 289 293 294 289 287 289 297 300 302 304 305 305 303 304 303 303 302 300 298 298 298 297 297 297 297 297
291 290 286 289 293 293 296 298 298 298 299 297 297 296 296 292 291 292 291 289 287 289 288 288 299 303 304 304 304 303 303 302 301 301 299 298 297 296 296 297 297 297 296 295
293 291 289 293 291 292 296 298 297 301 300 301 299 292 289 289 291 287 286 286 287 289 295 298 300 303 304 303 304 304 303 302 300 299 298 297 297 297 296 296 296 296 295 294
292 290 295 293 292 292 297 299 299 302 299 294 294 288 290 296 289 287 292 290 292 297 298 299 299 301 303 302 303 303 301 300 300 299 298 298 298 297 296 294 295 296 295 294

GFSNW_sfc_thetae_114.txt.gz
Theta_e
305 306 305 305 305 304 300 292 285 297 301 289 292 288 291 293 293 297 296 294 293 291 291 289 289 291 295 300 298 292 299 296 290 293 301 303 300 295 293 287 285 286 285 285
305 305 305 305 305 304 297 288 290 298 302 283 285 289 290 293 293 294 294 293 295 293 290 288 290 294 300 298 296 294 299 294 286 290 295 298 295 297 294 291 289 287 284 287
305 304 305 305 305 304 299 290 284 290 291 291 288 287 288 289 295 295 297 295 295 291 289 292 290 292 298 299 298 301 298 297 289 286 290 294 292 294 296 292 285 287 289 293
304 304 305 305 304 304 296 290 285 290 282 285 287 289 288 288 288 295 296 294 293 291 287 289 290 293 297 300 302 299 298 293 295 296 298 297 298 297 296 292 292 290 293 294
303 304 304 304 304 304 291 285 286 290 287 289 287 287 288 286 287 290 292 291 293 291 288 291 288 292 294 294 300 297 299 293 296 294 298 297 296 297 298 297 298 297 297 295
303 303 304 305 305 302 294 295 292 290 287 286 285 286 287 288 290 294 296 294 292 290 293 295 296 296 297 299 297 294 293 295 291 289 297 295 290 296 297 298 300 299 293 299
303 303 303 304 305 303 295 295 293 288 282 285 285 287 290 289 290 291 295 295 292 296 300 298 299 299 299 299 299 299 294 294 293 289 292 282 295 303 302 299 300 302 301 303
303 303 303 304 304 304 294 293 294 289 283 287 286 288 289 290 292 292 294 295 298 300 297 293 289 290 291 295 299 298 298 294 289 284 286 292 296 299 299 296 296 303 301 297
303 303 304 304 305 305 296 293 296 293 286 285 289 288 289 287 289 291 294 299 301 300 293 291 286 284 288 288 292 300 299 299 291 286 284 284 295 302 304 303 291 302 299 297
303 303 303 304 304 305 301 297 297 295 287 291 292 287 288 292 290 288 294 294 295 298 289 289 289 288 294 288 288 288 292 292 287 285 287 292 301 304 305 289 289 301 300 299
303 304 304 304 305 305 302 297 300 295 291 292 294 294 291 291 291 289 294 292 291 290 287 290 289 289 293 291 293 291 291 288 286 286 286 284 302 302 294 296 298 299 299 297
304 304 305 305 305 305 305 296 296 299 294 292 297 298 299 297 297 294 296 294 294 292 289 289 287 291 293 291 286 298 289 293 292 291 293 298 301 299 301 300 298 299 298 299
304 305 305 305 305 306 304 298 294 298 294 292 290 293 301 305 305 305 295 297 300 298 300 296 294 290 294 288 291 294 299 303 296 295 297 297 299 300 300 300 298 299 300 298
305 306 305 306 305 305 305 296 298 297 295 287 291 302 299 303 305 306 305 302 302 301 299 296 293 291 296 292 295 294 297 299 295 294 296 297 298 298 299 299 299 298 297 296
305 306 306 305 305 306 303 300 303 303 295 288 291 297 301 303 302 302 304 301 299 296 294 291 290 293 292 292 294 292 298 296 292 292 297 295 295 297 298 296 295 295 293 292
305 306 306 306 306 306 298 294 301 302 300 293 287 295 296 299 300 300 301 299 297 295 292 290 291 295 291 289 289 297 300 301 301 297 299 297 297 297 297 294 294 294 293 292
305 305 305 305 305 297 291 293 295 302 301 293 289 288 295 297 296 297 297 297 295 294 291 290 290 291 293 291 291 298 303 301 300 300 297 293 294 292 295 295 296 296 294 293
305 306 306 306 305 303 297 302 305 304 297 296 289 289 290 295 289 289 295 293 293 292 291 291 289 291 291 289 294 302 302 302 301 300 299 295 295 295 294 295 295 293 292 292
304 306 306 300 296 294 294 305 307 302 297 289 291 287 284 293 290 291 292 291 288 291 288 289 290 287 287 294 296 300 301 299 298 297 296 295 293 293 294 294 293 292 291 291
306 299 293 292 297 305 304 299 293 294 292 295 290 290 287 291 289 289 289 289 286 284 287 290 286 288 295 299 299 301 303 300 300 296 294 294 293 293 293 293 294 293 292 292
294 289 292 293 303 294 294 290 289 290 289 293 292 289 288 294 288 286 290 284 286 284 286 286 283 284 291 299 300 303 303 302 301 301 299 298 295 294 294 294 295 294 293 292
297 297 300 298 293 291 289 288 291 290 286 292 288 291 291 292 294 290 290 286 288 285 290 286 282 293 295 300 300 301 301 302 302 301 299 297 297 296 296 295 294 293 293 293
300 296 293 293 288 286 286 284 287 287 292 289 290 288 290 291 292 289 289 285 284 292 284 284 292 296 301 299 301 301 303 304 303 300 297 297 296 296 295 294 294 293 292 292
292 289 283 287 287 285 287 288 290 294 294 291 293 291 291 290 289 287 284 288 288 284 285 286 292 294 300 301 302 302 302 303 300 296 296 295 295 294 294 294 293 292 290 291
290 289 284 287 291 292 293 294 293 296 295 295 293 292 290 287 285 286 285 285 285 287 284 285 292 295 301 298 300 301 300 298 294 294 293 293 293 293 292 292 292 292 291 290
292 290 287 290 289 290 291 293 294 298 296 295 294 289 288 287 287 286 283 284 284 286 291 294 297 299 298 298 299 301 301 295 293 293 292 292 292 291 290 291 291 291 291 290
292 289 290 289 290 289 291 292 295 296 294 291 292 287 288 290 286 285 289 286 289 293 294 294 296 296 297 299 298 295 294 293 292 292 292 291 292 291 290 288 288 288 289 289

GFSNW_sfc_thetae_117.txt.gz
Theta_e
305 305 305 305 305 304 299 292 279 293 299 286 286 285 288 291 292 296 294 294 292 290 291 287 289 288 292 300 299 293 296 292 288 292 298 301 298 293 293 284 283 285 285 285
305 305 305 305 304 304 297 287 288 296 297 280 284 288 287 291 291 291 293 290 293 293 289 285 289 291 299 300 297 294 297 291 285 289 294 299 295 296 293 290 290 286 283 286
304 305 305 304 305 304 298 289 283 287 288 287 285 284 285 286 292 291 292 293 295 291 289 291 289 290 296 298 298 302 298 291 290 284 288 293 293 295 295 291 286 287 286 294
304 304 304 304 304 304 293 289 285 286 279 282 284 285 285 286 285 290 292 292 290 287 287 287 287 292 294 297 300 299 296 289 292 295 296 297 296 295 296 291 291 289 292 294
303 303 304 304 304 303 290 285 285 288 285 285 284 285 285 285 287 288 289 289 291 291 288 288 286 291 292 293 298 296 297 289 294 292 297 297 295 297 297 295 294 295 296 293
303 304 304 304 305 301 293 294 295 289 284 284 283 283 285 286 288 290 291 292 291 289 291 295 295 295 294 294 294 295 293 289 292 289 295 294 289 295 297 298 298 297 292 296
303 303 304 304 304 303 296 295 293 287 281 284 284 285 287 286 288 287 291 294 292 294 298 298 296 295 295 296 297 299 290 288 291 290 292 283 295 301 302 299 299 300 299 298
303 303 303 304 305 305 293 295 293 288 282 286 286 286 286 288 290 289 290 294 297 300 295 290 287 289 291 294 296 296 295 293 289 286 287 292 296 298 297 296 295 301 296 296
303 304 304 303 305 305 296 297 297 292 285 283 287 285 288 286 287 288 290 296 300 297 291 289 286 284 287 287 292 299 298 297 290 287 283 283 293 301 304 301 289 300 298 297
304 305 305 305 305 305 302 298 299 294 287 289 290 285 286 291 288 286 289 293 293 294 286 286 286 287 293 286 288 288 291 291 287 286 285 292 299 302 303 287 289 300 300 299
304 305 306 305 305 305 303 299 300 295 289 290 292 293 290 290 289 285 290 289 291 288 285 287 286 288 293 290 291 292 290 287 286 287 284 283 301 300 292 294 299 299 297 295
304 305 306 306 305 306 305 297 296 299 293 291 295 296 297 296 295 292 293 292 293 290 287 287 287 290 294 292 286 298 290 293 291 292 291 297 298 296 298 298 296 296 296 297
304 305 306 306 306 306 304 299 293 294 293 291 288 291 298 302 302 304 294 296 299 298 300 295 291 290 294 289 292 295 298 301 294 293 294 294 296 298 299 299 298 298 299 298
304 305 305 306 306 306 305 299 298 298 294 287 289 299 297 302 302 302 303 301 302 301 300 296 293 290 296 292 295 294 297 298 293 292 294 295 295 297 298 298 299 298 297 295
304 304 305 306 306 306 303 298 301 302 294 288 290 296 297 299 300 299 300 300 298 296 294 291 289 293 293 293 294 294 297 295 292 291 294 294 292 295 297 294 293 294 292 291
303 304 305 306 306 305 294 292 299 302 301 291 287 293 294 297 299 298 298 298 296 294 291 290 292 293 292 290 290 299 298 299 297 294 296 294 294 295 295 292 291 291 290 290
303 304 305 306 306 297 289 291 295 301 301 292 288 289 292 295 294 294 296 296 295 292 290 290 290 292 295 293 291 297 297 296 295 296 295 291 293 290 293 292 292 292 290 290
304 304 306 307 306 303 297 299 304 304 297 296 288 288 288 293 289 288 293 292 291 291 289 291 289 292 293 292 298 298 297 297 296 295 295 293 293 293 292 292 291 289 288 288
304 306 305 297 294 293 294 305 307 302 296 289 290 287 284 291 289 290 291 290 287 290 287 288 289 287 289 295 297 297 298 295 293 294 294 293 291 291 291 291 290 288 287 288
304 297 292 287 292 304 303 298 294 294 295 294 289 292 288 289 287 288 287 287 285 283 286 289 286 289 294 297 300 299 296 295 295 292 290 291 290 291 291 290 290 289 289 288
293 289 288 292 301 294 292 288 288 289 289 292 292 288 286 292 285 285 288 283 285 280 284 285 282 286 291 298 299 298 298 299 298 295 294 293 293 292 291 291 292 291 290 289
295 296 299 298 292 292 288 285 290 289 286 292 287 288 289 291 292 288 288 285 287 283 289 285 284 290 295 299 299 298 300 299 298 297 295 295 294 294 293 292 291 291 291 291
300 296 293 292 288 284 286 284 286 288 292 289 291 290 288 290 294 288 286 284 283 290 282 286 291 293 298 298 299 299 301 301 298 297 296 295 295 295 293 291 292 292 291 290
291 288 283 286 286 284 283 287 289 292 294 292 292 288 286 286 287 285 284 287 287 283 281 285 291 295 297 299 300 301 299 297 295 295 296 295 294 293 293 292 292 291 290 290
289 289 283 286 290 292 292 293 292 296 297 294 292 291 289 286 284 284 283 283 284 285 284 286 292 295 297 298 300 302 298 295 294 294 294 293 293 292 291 291 290 290 289 288
292 290 286 289 288 289 290 292 293 297 296 294 294 289 287 287 285 283 282 282 282 285 290 293 296 298 295 296 297 295 295 294 293 293 293 293 292 291 290 290 290 289 288 287
291 288 291 288 287 289 291 289 293 298 294 290 289 286 285 288 284 285 289 285 286 293 292 294 296 297 298 299 296 294 294 293 292 292 292 290 290 290 289 287 287 287 288 287

GFSNW_sfc_thetae_123.txt.gz
Theta_e
305 305 305 306 305 304 300 292 285 297 300 285 287 282 284 288 288 291 290 291 290 286 288 289 288 287 291 297 297 292 297 292 286 291 296 300 298 295 294 289 288 292 292 291
305 305 305 305 305 304 297 288 287 298 299 280 282 285 285 287 287 287 290 287 289 291 288 286 289 291 296 297 295 294 297 290 284 288 290 295 294 296 296 296 295 291 289 293
305 305 305 305 305 304 298 290 283 289 291 289 284 282 283 284 289 288 289 288 291 289 286 290 287 289 294 296 296 301 299 292 288 283 285 289 291 294 295 295 291 292 293 296
304 305 306 305 305 304 297 291 285 288 281 284 284 285 284 283 282 288 289 289 289 286 283 284 287 290 291 294 298 298 296 289 291 291 291 290 295 294 295 293 295 291 294 298
303 305 305 306 305 304 295 287 286 289 285 287 284 285 283 283 284 285 284 285 287 287 284 285 283 288 288 289 293 291 292 288 291 288 294 296 294 296 296 297 297 298 298 299
303 305 306 306 306 303 294 294 295 289 286 285 282 283 283 284 286 287 289 287 285 286 288 291 292 292 292 291 289 289 288 287 286 286 294 294 290 295 296 297 299 300 296 303
303 304 305 306 306 305 300 297 293 287 282 284 284 285 286 284 286 284 288 289 286 291 295 294 294 293 292 292 292 293 288 289 288 286 290 284 295 302 301 298 300 303 302 304
303 303 304 306 306 306 302 301 293 288 281 285 286 286 285 287 288 287 288 290 294 296 293 289 288 289 290 290 292 292 293 289 286 284 288 293 296 300 300 298 297 303 303 305
302 303 304 306 307 307 303 300 300 293 285 286 288 286 287 284 285 286 289 294 298 295 288 287 285 285 288 288 291 296 294 290 287 289 288 285 295 302 306 305 294 303 307 301
302 303 305 305 306 307 304 301 301 294 287 290 290 286 285 289 288 285 288 290 290 294 287 286 286 287 293 288 288 286 287 286 284 291 289 292 297 301 307 292 296 306 306 306
301 303 304 305 305 306 306 301 303 297 290 291 294 294 289 289 288 283 288 286 291 289 286 286 287 286 291 288 289 287 288 289 288 292 290 286 297 302 297 302 305 306 307 306
301 302 304 305 305 306 306 298 303 303 293 292 298 298 299 296 295 289 289 288 287 289 287 289 287 287 288 287 286 297 288 293 289 289 288 296 299 299 305 305 304 303 301 300
300 302 303 305 305 306 305 301 300 298 292 294 295 295 300 301 299 299 288 292 297 295 295 293 289 286 292 287 290 294 295 298 292 291 293 295 298 301 303 304 304 303 301 300
300 301 303 304 305 306 306 301 301 298 294 288 292 301 298 303 301 301 299 297 298 299 297 293 289 287 295 293 294 293 296 296 291 291 294 295 295 298 300 301 301 299 299 298
300 302 303 303 304 305 305 303 302 303 295 288 290 298 300 300 301 299 300 299 297 297 295 293 290 294 294 298 294 288 294 294 293 288 293 292 292 295 298 297 296 297 297 296
301 302 303 303 304 305 301 295 301 303 302 292 287 298 297 300 301 299 299 300 299 296 294 293 295 297 296 292 286 289 292 294 296 289 294 292 292 293 295 295 295 295 295 294
302 303 303 304 305 302 296 294 300 303 301 292 288 290 298 298 298 298 298 299 297 296 297 295 295 298 299 292 286 291 294 295 295 296 296 291 291 288 292 293 293 294 294 293
303 304 303 305 306 303 299 303 304 305 299 296 289 290 294 298 296 294 298 296 297 297 296 298 293 298 295 287 292 294 294 293 293 293 293 292 293 294 293 294 293 291 290 291
303 303 303 302 300 297 299 304 306 306 299 290 290 288 288 299 296 295 297 295 293 296 294 294 296 292 286 292 295 296 296 294 292 293 293 293 292 292 292 292 292 290 289 290
301 299 296 293 298 302 303 300 296 296 297 295 290 295 291 295 295 294 294 295 289 291 293 295 293 291 296 296 296 296 295 295 296 292 291 291 291 291 291 291 291 291 290 290
296 294 291 298 302 299 295 291 290 292 290 294 294 295 292 298 292 292 294 292 292 288 291 292 292 291 294 297 295 297 297 298 298 298 297 296 294 292 291 291 291 291 290 289
295 295 297 297 295 293 288 289 291 290 289 295 294 294 295 297 298 294 294 290 292 287 293 292 289 292 298 298 297 297 297 297 297 297 295 295 294 294 292 291 291 291 291 290
300 295 293 291 291 284 284 282 286 289 294 296 296 294 295 297 296 293 291 288 288 293 290 288 291 296 298 300 299 299 297 297 297 296 296 295 294 294 293 291 292 292 291 291
293 289 285 287 287 287 288 288 290 294 296 296 297 296 293 293 292 291 287 290 292 287 284 285 292 296 298 302 301 298 295 297 297 296 296 295 295 293 293 293 293 292 291 292
291 290 283 287 291 292 293 295 295 297 299 297 296 295 294 292 290 290 289 288 284 285 285 289 296 298 299 301 300 298 297 297 296 297 296 296 295 294 293 294 294 293 292 292
293 291 288 291 290 291 293 294 295 299 299 298 297 292 290 290 290 288 285 285 282 288 290 294 296 299 300 301 300 299 298 297 298 298 297 297 296 295 294 295 294 293 292 291
291 290 293 292 291 291 292 295 294 299 298 293 294 289 288 292 289 286 291 288 292 295 296 295 297 300 300 302 297 296 296 297 298 298 298 297 297 296 295 293 293 293 293 292